| time (UTC) | temp F | wind direction | speed MPH | gust MPH | rain 1hr in | rain 24hr in | rain mn in | humidity % | barometer mb |
| 20260502195405 | 50 | 44 | 1.0 | 3.0 | 0.00 | 0.03 | 0.03 | 78 | 1022.6 |
| 20260502194904 | 50 | 313 | 0.0 | 3.0 | 0.00 | 0.03 | 0.03 | 79 | 1022.6 |
| 20260502194404 | 50 | 295 | 0.0 | 3.0 | 0.00 | 0.03 | 0.03 | 78 | 1022.7 |
| 20260502193904 | 50 | 61 | 0.0 | 0.0 | 0.00 | 0.03 | 0.03 | 80 | 1022.7 |
| 20260502192405 | 50 | 61 | 0.0 | 1.0 | 0.00 | 0.03 | 0.03 | 78 | 1022.6 |
| 20260502191903 | 50 | 61 | 0.0 | 1.0 | 0.00 | 0.03 | 0.03 | 77 | 1022.5 |
| 20260502191403 | 50 | 61 | 0.0 | 1.0 | 0.00 | 0.03 | 0.03 | 77 | 1022.5 |
| 20260502190903 | 50 | 62 | 1.0 | 2.0 | 0.00 | 0.03 | 0.03 | 77 | 1022.4 |
| 20260502190405 | 49 | 51 | 1.0 | 2.0 | 0.00 | 0.03 | 0.03 | 78 | 1022.3 |
| 20260502185905 | 49 | 56 | 1.0 | 2.0 | 0.00 | 0.03 | 0.03 | 78 | 1022.3 |
| 20260502185403 | 50 | 62 | 1.0 | 2.0 | 0.00 | 0.03 | 0.03 | 77 | 1022.3 |
| 20260502184903 | 50 | 62 | 0.0 | 2.0 | 0.00 | 0.03 | 0.03 | 77 | 1022.2 |
| 20260502184403 | 50 | 58 | 1.0 | 3.0 | 0.00 | 0.03 | 0.03 | 77 | 1022.2 |
| 20260502183905 | 50 | 43 | 1.0 | 3.0 | 0.00 | 0.03 | 0.03 | 77 | 1022.2 |
| 20260502183403 | 50 | 53 | 1.0 | 2.0 | 0.00 | 0.03 | 0.03 | 77 | 1022.1 |
| 20260502182903 | 50 | 58 | 1.0 | 2.0 | 0.00 | 0.03 | 0.03 | 78 | 1021.9 |
| 20260502182405 | 50 | 60 | 0.0 | 2.0 | 0.00 | 0.03 | 0.03 | 77 | 1021.8 |
| 20260502181905 | 50 | 59 | 1.0 | 2.0 | 0.00 | 0.03 | 0.03 | 77 | 1021.8 |
| 20260502181403 | 50 | 60 | 1.0 | 2.0 | 0.00 | 0.03 | 0.03 | 77 | 1021.7 |
| 20260502180405 | 51 | 60 | 1.0 | 3.0 | 0.00 | 0.03 | 0.03 | 76 | 1021.7 |
| 20260502170404 | 56 | 147 | 0.0 | 0.0 | 0.00 | 0.03 | 0.03 | 64 | 1021.8 |
| 20260502163905 | 55 | 126 | 0.0 | 1.0 | 0.00 | 0.04 | 0.03 | 65 | 1021.3 |
| 20260502163404 | 56 | 128 | 0.0 | 3.0 | 0.00 | 0.04 | 0.03 | 64 | 1021.2 |
| 20260502162406 | 56 | 126 | 0.0 | 3.0 | 0.00 | 0.04 | 0.03 | 62 | 1021.2 |
| 20260502161904 | 56 | 123 | 0.0 | 2.0 | 0.00 | 0.04 | 0.03 | 61 | 1021.2 |
| 20260502161403 | 57 | 86 | 0.0 | 3.0 | 0.00 | 0.04 | 0.03 | 61 | 1021.3 |
| 20260502160903 | 57 | 95 | 0.0 | 3.0 | 0.00 | 0.04 | 0.03 | 59 | 1021.3 |
| 20260502160405 | 57 | 60 | 1.0 | 6.0 | 0.00 | 0.04 | 0.03 | 60 | 1021.4 |
| 20260502151905 | 58 | 43 | 1.0 | 3.0 | 0.00 | 0.12 | 0.03 | 57 | 1021.6 |
| 20260502151404 | 58 | 26 | 0.0 | 3.0 | 0.00 | 0.14 | 0.03 | 54 | 1021.5 |
| 20260502150905 | 58 | 260 | 0.0 | 6.0 | 0.00 | 0.14 | 0.03 | 55 | 1021.6 |
| 20260502150404 | 58 | 10 | 1.0 | 6.0 | 0.00 | 0.15 | 0.03 | 53 | 1021.6 |
| 20260502130405 | 62 | 0 | 2.0 | 6.0 | 0.00 | 0.15 | 0.03 | 46 | 1022.0 |
| 20260502122403 | 62 | 188 | 1.0 | 5.0 | 0.00 | 0.15 | 0.03 | 47 | 1022.4 |
| 20260502121903 | 63 | 209 | 2.0 | 8.0 | 0.00 | 0.15 | 0.03 | 48 | 1022.3 |
| 20260502121404 | 63 | 215 | 2.0 | 8.0 | 0.00 | 0.15 | 0.03 | 48 | 1022.3 |
| 20260502120904 | 63 | 274 | 1.0 | 3.0 | 0.00 | 0.15 | 0.03 | 45 | 1022.4 |
| 20260502120404 | 63 | 262 | 0.0 | 3.0 | 0.00 | 0.15 | 0.03 | 44 | 1022.5 |
| 20260502115904 | 62 | 208 | 1.0 | 3.0 | 0.00 | 0.15 | 0.03 | 48 | 1022.5 |
| 20260502115404 | 62 | 12 | 1.0 | 6.0 | 0.00 | 0.15 | 0.03 | 47 | 1022.7 |
| 20260502114903 | 62 | 277 | 1.0 | 6.0 | 0.00 | 0.15 | 0.03 | 48 | 1022.8 |
| 20260502113903 | 63 | 11 | 3.0 | 7.0 | 0.00 | 0.15 | 0.03 | 47 | 1022.8 |
| 20260502113403 | 62 | 304 | 2.0 | 7.0 | 0.00 | 0.15 | 0.03 | 48 | 1022.9 |
| 20260502112904 | 62 | 318 | 2.0 | 3.0 | 0.00 | 0.15 | 0.03 | 47 | 1023.0 |
| 20260502112404 | 61 | 307 | 1.0 | 6.0 | 0.00 | 0.15 | 0.03 | 52 | 1023.0 |
| 20260502111903 | 61 | 316 | 2.0 | 6.0 | 0.00 | 0.15 | 0.03 | 48 | 1023.1 |
| 20260502111405 | 61 | 11 | 2.0 | 6.0 | 0.00 | 0.15 | 0.03 | 51 | 1023.1 |
| 20260502110404 | 59 | 291 | 2.0 | 5.0 | 0.00 | 0.15 | 0.03 | 53 | 1023.3 |
| 20260502105905 | 59 | 310 | 1.0 | 3.0 | 0.00 | 0.15 | 0.03 | 53 | 1023.3 |
| 20260502105404 | 59 | 332 | 1.0 | 6.0 | 0.00 | 0.15 | 0.03 | 54 | 1023.4 |
| 20260502103404 | 58 | 305 | 2.0 | 6.0 | 0.00 | 0.15 | 0.03 | 56 | 1023.6 |
| 20260502102904 | 58 | 207 | 1.0 | 7.0 | 0.00 | 0.15 | 0.03 | 56 | 1023.7 |
| 20260502102404 | 58 | 220 | 1.0 | 9.0 | 0.00 | 0.15 | 0.03 | 57 | 1023.6 |
| 20260502101905 | 57 | 237 | 2.0 | 9.0 | 0.00 | 0.15 | 0.03 | 56 | 1023.7 |
| 20260502101404 | 57 | 264 | 2.0 | 8.0 | 0.00 | 0.15 | 0.03 | 56 | 1023.7 |
| 20260502100403 | 58 | 248 | 2.0 | 6.0 | 0.00 | 0.15 | 0.03 | 56 | 1023.9 |
| 20260502090903 | 57 | 250 | 2.0 | 6.0 | 0.00 | 0.15 | 0.03 | 59 | 1024.2 |
| 20260502090403 | 58 | 225 | 2.0 | 6.0 | 0.00 | 0.15 | 0.03 | 59 | 1024.1 |
| 20260502070903 | 45 | 0 | 0.0 | 0.0 | 0.00 | 0.15 | 0.03 | 81 | 1025.0 |
| 20260502070405 | 45 | 0 | 0.0 | 0.0 | 0.00 | 0.15 | 0.03 | 81 | 1025.0 |
| 20260502065904 | 45 | 0 | 0.0 | 0.0 | 0.00 | 0.15 | 0.03 | 81 | 1025.0 |
| 20260502065404 | 45 | 0 | 0.0 | 0.0 | 0.00 | 0.15 | 0.03 | 81 | 1025.0 |
| 20260502064404 | 45 | 0 | 0.0 | 0.0 | 0.00 | 0.15 | 0.03 | 81 | 1025.0 |
| 20260502063912 | 45 | 0 | 0.0 | 0.0 | 0.00 | 0.15 | 0.03 | 81 | 1025.0 |
| 20260502062903 | 45 | 0 | 0.0 | 0.0 | 0.00 | 0.15 | 0.03 | 81 | 1025.1 |
| 20260502062405 | 45 | 0 | 0.0 | 0.0 | 0.00 | 0.15 | 0.03 | 81 | 1025.1 |
| 20260502061903 | 45 | 0 | 0.0 | 0.0 | 0.00 | 0.15 | 0.03 | 81 | 1025.2 |
| 20260502060903 | 45 | 0 | 0.0 | 0.0 | 0.00 | 0.15 | 0.03 | 81 | 1025.1 |
| 20260502060405 | 45 | 0 | 0.0 | 0.0 | 0.00 | 0.15 | 0.03 | 81 | 1025.1 |
| 20260502055905 | 45 | 0 | 0.0 | 0.0 | 0.00 | 0.15 | 0.03 | 81 | 1025.2 |
| 20260502055404 | 45 | 0 | 0.0 | 0.0 | 0.00 | 0.15 | 0.03 | 81 | 1025.2 |
| 20260502054904 | 45 | 0 | 0.0 | 0.0 | 0.00 | 0.15 | 0.03 | 81 | 1025.1 |
| 20260502053904 | 45 | 0 | 0.0 | 0.0 | 0.00 | 0.15 | 0.03 | 81 | 1025.3 |
| 20260502052906 | 45 | 0 | 0.0 | 0.0 | 0.00 | 0.15 | 0.03 | 81 | 1025.3 |
| 20260502052403 | 45 | 0 | 0.0 | 0.0 | 0.00 | 0.15 | 0.03 | 81 | 1025.2 |
| 20260502051903 | 45 | 0 | 0.0 | 0.0 | 0.00 | 0.15 | 0.03 | 81 | 1025.3 |
| 20260502051403 | 45 | 0 | 0.0 | 0.0 | 0.00 | 0.15 | 0.03 | 81 | 1025.3 |
| 20260502050905 | 45 | 0 | 0.0 | 0.0 | 0.00 | 0.15 | 0.03 | 81 | 1025.2 |
| 20260502050404 | 45 | 0 | 0.0 | 0.0 | 0.00 | 0.15 | 0.03 | 81 | 1025.3 |
| 20260502045904 | 45 | 0 | 0.0 | 0.0 | 0.00 | 0.15 | 0.03 | 81 | 1025.2 |
| 20260502045406 | 45 | 0 | 0.0 | 0.0 | 0.00 | 0.15 | 0.03 | 81 | 1025.2 |
| 20260502043905 | 45 | 0 | 0.0 | 0.0 | 0.00 | 0.15 | 0.03 | 81 | 1025.0 |
| 20260502043405 | 45 | 0 | 0.0 | 0.0 | 0.00 | 0.15 | 0.03 | 81 | 1025.1 |
| 20260502042404 | 45 | 0 | 0.0 | 0.0 | 0.00 | 0.15 | 0.03 | 81 | 1025.0 |
| 20260502041903 | 45 | 0 | 0.0 | 0.0 | 0.00 | 0.15 | 0.03 | 81 | 1024.9 |
| 20260502041404 | 45 | 0 | 0.0 | 0.0 | 0.00 | 0.15 | 0.03 | 81 | 1024.9 |
| 20260502040905 | 45 | 0 | 0.0 | 0.0 | 0.00 | 0.15 | 0.03 | 81 | 1024.9 |
| 20260502040405 | 45 | 0 | 0.0 | 0.0 | 0.00 | 0.15 | 0.03 | 81 | 1024.8 |
| 20260502035903 | 45 | 0 | 0.0 | 0.0 | 0.00 | 0.15 | 0.03 | 81 | 1024.8 |
| 20260502035405 | 45 | 0 | 0.0 | 0.0 | 0.00 | 0.15 | 0.03 | 81 | 1024.9 |
| 20260502034904 | 45 | 0 | 0.0 | 0.0 | 0.00 | 0.15 | 0.03 | 81 | 1024.8 |
| 20260502034405 | 45 | 0 | 0.0 | 0.0 | 0.00 | 0.15 | 0.03 | 81 | 1024.8 |
| 20260502033404 | 45 | 0 | 0.0 | 1.0 | 0.00 | 0.15 | 0.03 | 81 | 1024.7 |
| 20260502032905 | 45 | 16 | 1.0 | 2.0 | 0.00 | 0.15 | 0.03 | 81 | 1024.7 |
| 20260502032404 | 45 | 24 | 1.0 | 2.0 | 0.00 | 0.15 | 0.03 | 81 | 1024.6 |
| 20260502031904 | 45 | 25 | 1.0 | 2.0 | 0.00 | 0.15 | 0.03 | 81 | 1024.5 |
| 20260502031404 | 45 | 28 | 0.0 | 2.0 | 0.00 | 0.15 | 0.03 | 81 | 1024.5 |
| 20260502030905 | 45 | 28 | 0.0 | 3.0 | 0.00 | 0.15 | 0.03 | 79 | 1024.6 |
| 20260502025904 | 45 | 39 | 2.0 | 3.0 | 0.00 | 0.15 | 0.03 | 80 | 1024.6 |
| 20260502024904 | 45 | 29 | 2.0 | 5.0 | 0.00 | 0.15 | 0.03 | 81 | 1024.6 |
| 20260502024405 | 45 | 35 | 1.0 | 3.0 | 0.00 | 0.15 | 0.03 | 82 | 1024.6 |
| 20260502023904 | 45 | 26 | 2.0 | 3.0 | 0.00 | 0.15 | 0.03 | 82 | 1024.7 |
| 20260502023403 | 45 | 20 | 0.0 | 3.0 | 0.00 | 0.15 | 0.03 | 83 | 1024.7 |
| 20260502021905 | 45 | 36 | 1.0 | 3.0 | 0.00 | 0.15 | 0.03 | 83 | 1024.8 |
| 20260502021405 | 45 | 26 | 1.0 | 3.0 | 0.00 | 0.15 | 0.03 | 84 | 1024.8 |
| 20260502020405 | 45 | 18 | 0.0 | 1.0 | 0.00 | 0.15 | 0.03 | 87 | 1024.9 |
| 20260502015403 | 45 | 260 | 0.0 | 1.0 | 0.00 | 0.15 | 0.03 | 87 | 1024.9 |
| 20260502014403 | 46 | 348 | 0.0 | 2.0 | 0.00 | 0.15 | 0.03 | 87 | 1025.1 |
| 20260502013404 | 45 | 6 | 1.0 | 2.0 | 0.00 | 0.15 | 0.03 | 87 | 1025.2 |
| 20260502012903 | 45 | 25 | 1.0 | 2.0 | 0.00 | 0.15 | 0.03 | 87 | 1025.2 |
| 20260502012405 | 45 | 29 | 1.0 | 2.0 | 0.00 | 0.15 | 0.03 | 88 | 1025.3 |
| 20260502011903 | 45 | 24 | 0.0 | 2.0 | 0.00 | 0.15 | 0.03 | 88 | 1025.4 |
| 20260502011405 | 45 | 15 | 0.0 | 1.0 | 0.00 | 0.15 | 0.03 | 88 | 1025.3 |
| 20260502010903 | 45 | 11 | 0.0 | 1.0 | 0.00 | 0.15 | 0.03 | 88 | 1025.3 |
| 20260502010405 | 45 | 15 | 0.0 | 1.0 | 0.00 | 0.15 | 0.03 | 88 | 1025.3 |
| 20260502005906 | 45 | 15 | 0.0 | 1.0 | 0.00 | 0.15 | 0.03 | 88 | 1025.3 |
| 20260502005403 | 46 | 15 | 0.0 | 1.0 | 0.00 | 0.15 | 0.03 | 88 | 1025.4 |
| 20260502004905 | 45 | 14 | 0.0 | 1.0 | 0.00 | 0.15 | 0.03 | 88 | 1025.3 |
| 20260502004404 | 46 | 7 | 0.0 | 1.0 | 0.00 | 0.15 | 0.03 | 88 | 1025.3 |
| 20260502003904 | 46 | 7 | 0.0 | 1.0 | 0.00 | 0.15 | 0.03 | 88 | 1025.4 |
| 20260502003404 | 46 | 9 | 0.0 | 1.0 | 0.00 | 0.15 | 0.03 | 88 | 1025.3 |
| 20260502002904 | 46 | 8 | 0.0 | 1.0 | 0.00 | 0.15 | 0.03 | 88 | 1025.3 |
| 20260502002404 | 46 | 27 | 0.0 | 2.0 | 0.00 | 0.15 | 0.03 | 88 | 1025.4 |
| 20260502001904 | 46 | 1 | 1.0 | 2.0 | 0.00 | 0.15 | 0.03 | 88 | 1025.4 |
| 20260502001404 | 46 | 11 | 0.0 | 2.0 | 0.00 | 0.15 | 0.03 | 88 | 1025.4 |
| 20260502000904 | 46 | 1 | 0.0 | 2.0 | 0.00 | 0.15 | 0.03 | 89 | 1025.5 |
| 20260502000404 | 46 | 18 | 0.0 | 2.0 | 0.00 | 0.15 | 0.03 | 89 | 1025.5 |
| 20260501235903 | 45 | 0 | 1.0 | 2.0 | 0.00 | 0.15 | 0.03 | 89 | 1025.5 |
| 20260501235405 | 46 | 6 | 0.0 | 2.0 | 0.00 | 0.15 | 0.03 | 89 | 1025.5 |
| 20260501234404 | 46 | 22 | 0.0 | 2.0 | 0.00 | 0.15 | 0.03 | 89 | 1025.6 |
| 20260501233905 | 46 | 22 | 0.0 | 2.0 | 0.00 | 0.15 | 0.03 | 89 | 1025.7 |
| 20260501233404 | 46 | 358 | 0.0 | 2.0 | 0.00 | 0.15 | 0.03 | 89 | 1025.8 |
| 20260501232903 | 46 | 349 | 0.0 | 0.0 | 0.00 | 0.15 | 0.03 | 89 | 1025.8 |
| 20260501232405 | 46 | 349 | 0.0 | 0.0 | 0.00 | 0.15 | 0.03 | 89 | 1025.8 |
| 20260501231903 | 46 | 349 | 0.0 | 1.0 | 0.00 | 0.15 | 0.03 | 89 | 1025.9 |
| 20260501231404 | 46 | 349 | 0.0 | 2.0 | 0.00 | 0.15 | 0.03 | 89 | 1025.9 |
| 20260501230903 | 46 | 349 | 0.0 | 2.0 | 0.00 | 0.15 | 0.03 | 89 | 1025.9 |
| 20260501230404 | 45 | 308 | 0.0 | 2.0 | 0.00 | 0.15 | 0.03 | 89 | 1026.0 |
| 20260501225903 | 45 | 5 | 0.0 | 2.0 | 0.00 | 0.15 | 0.03 | 89 | 1026.1 |
| 20260501225405 | 45 | 358 | 1.0 | 2.0 | 0.00 | 0.15 | 0.03 | 89 | 1026.1 |
| 20260501224904 | 45 | 356 | 1.0 | 2.0 | 0.01 | 0.15 | 0.03 | 89 | 1026.1 |
| 20260501224406 | 46 | 359 | 0.0 | 2.0 | 0.01 | 0.15 | 0.03 | 89 | 1026.1 |
| 20260501223904 | 46 | 359 | 0.0 | 1.0 | 0.01 | 0.15 | 0.03 | 89 | 1026.1 |
| 20260501223403 | 46 | 305 | 0.0 | 0.0 | 0.02 | 0.15 | 0.03 | 90 | 1026.2 |
| 20260501222404 | 46 | 305 | 0.0 | 0.0 | 0.02 | 0.15 | 0.03 | 89 | 1026.2 |
| 20260501221904 | 46 | 305 | 0.0 | 2.0 | 0.02 | 0.15 | 0.03 | 89 | 1026.4 |
| 20260501221404 | 45 | 305 | 0.0 | 3.0 | 0.03 | 0.15 | 0.03 | 89 | 1026.3 |
| 20260501220904 | 45 | 6 | 0.0 | 3.0 | 0.03 | 0.15 | 0.03 | 88 | 1026.4 |
| 20260501220404 | 46 | 12 | 1.0 | 2.0 | 0.03 | 0.15 | 0.03 | 87 | 1026.4 |
| 20260501215404 | 46 | 351 | 0.0 | 3.0 | 0.03 | 0.15 | 0.03 | 87 | 1026.4 |
| 20260501214904 | 47 | 7 | 1.0 | 8.0 | 0.02 | 0.14 | 0.02 | 86 | 1026.5 |
| 20260501214404 | 47 | 40 | 1.0 | 8.0 | 0.02 | 0.14 | 0.02 | 87 | 1026.6 |
| 20260501213904 | 48 | 29 | 3.0 | 8.0 | 0.02 | 0.14 | 0.02 | 88 | 1026.6 |
| 20260501213404 | 48 | 43 | 0.0 | 3.0 | 0.01 | 0.13 | 0.01 | 88 | 1026.5 |
| 20260501212904 | 48 | 57 | 0.0 | 2.0 | 0.01 | 0.13 | 0.01 | 88 | 1026.3 |
| 20260501212404 | 48 | 45 | 1.0 | 5.0 | 0.01 | 0.13 | 0.01 | 88 | 1026.3 |
| 20260501211904 | 48 | 32 | 1.0 | 5.0 | 0.01 | 0.13 | 0.01 | 87 | 1026.3 |
| 20260501211403 | 48 | 24 | 1.0 | 3.0 | 0.00 | 0.12 | 0.00 | 87 | 1026.4 |
| 20260501210903 | 48 | 44 | 0.0 | 3.0 | 0.00 | 0.12 | 0.00 | 87 | 1026.4 |
| 20260501205903 | 48 | 29 | 2.0 | 5.0 | 0.00 | 0.12 | 0.12 | 87 | 1026.3 |
| 20260501205403 | 49 | 44 | 1.0 | 2.0 | 0.00 | 0.12 | 0.12 | 88 | 1026.2 |
| 20260501204904 | 48 | 51 | 0.0 | 2.0 | 0.00 | 0.12 | 0.12 | 88 | 1026.3 |
| 20260501204405 | 48 | 51 | 1.0 | 2.0 | 0.00 | 0.12 | 0.12 | 88 | 1026.3 |
| 20260501203904 | 48 | 44 | 0.0 | 2.0 | 0.00 | 0.12 | 0.12 | 88 | 1026.2 |
| 20260501203405 | 48 | 36 | 0.0 | 2.0 | 0.00 | 0.12 | 0.12 | 88 | 1026.3 |
| 20260501202904 | 48 | 39 | 0.0 | 1.0 | 0.00 | 0.12 | 0.12 | 88 | 1026.3 |
| 20260501202404 | 48 | 39 | 0.0 | 1.0 | 0.00 | 0.12 | 0.12 | 88 | 1026.3 |
| 20260501201904 | 48 | 39 | 0.0 | 1.0 | 0.00 | 0.12 | 0.12 | 88 | 1026.2 |
| 20260501201404 | 48 | 37 | 0.0 | 1.0 | 0.00 | 0.12 | 0.12 | 88 | 1026.2 |
| 20260501200904 | 48 | 37 | 0.0 | 1.0 | 0.00 | 0.12 | 0.12 | 88 | 1026.2 |
| 20260501200404 | 48 | 38 | 0.0 | 1.0 | 0.00 | 0.12 | 0.12 | 88 | 1026.3 |
| 20260501195905 | 48 | 38 | 0.0 | 1.0 | 0.00 | 0.12 | 0.12 | 88 | 1026.2 |